[[{"header":{"parameterUnit":"m.s-1","parameterCategory":2,"la1":30.2991,"la2":30.254,"lo1":-89.0895,"lo2":-89.0444,"dy":0.0017,"dx":0.0017,"nx":28,"ny":28,"refTime":"2025-03-12T03:00:00:Z","depth":"0","parameterNumber":2,"parameterNumberName":"U-component_of_CURRENTS"},"data":[0,0,0,0,0,0,0,0,0,0,0,0,0,0,0,0,0,0,0,0,0,0,0,0,0,0,0,0,0,0,0,0,0,0,0,0,0,0,0,0,0,0,0,0,0,0,0,0,0,0,0,0,0,0,0,0,0,0,0.1256,0.1256,0,0.1238,0.1238,0.1238,0.122,0.122,0.1219,0.1219,0.1214,0.1214,0.1214,0,0,0,0,0,0,0,0,0,0,0,0,0,0.1266,0.1266,0.1256,0.1256,0.1256,0.1238,0.1238,0.1238,0.122,0.122,0.1219,0.1219,0.1214,0.1214,0.1214,0,0,0,0,0,0,0,0,0,0,0,0,0,0.1257,0.1266,0.1257,0.1244,0.1243,0.1238,0.1238,0.1237,0.122,0.122,0.1219,0.1219,0.1214,0.1214,0.1214,0.1225,0,0,0.1215,0.1215,0,0,0,0,0,0,0,0,0.1257,0.1257,0.1246,0.1245,0.1243,0.123,0.1239,0.1234,0.122,0.123,0.1219,0.1218,0.122,0.122,0.1219,0.1225,0.1225,0.1215,0.1215,0.1215,0.1216,0,0,0,0,0,0,0,0.1258,0.1257,0.125,0.1246,0.1244,0.1236,0.1234,0.1238,0.1229,0.1229,0.1227,0.1224,0.122,0.1219,0.1219,0.1225,0.1215,0.1215,0.1216,0.1216,0.1249,0.125,0,0,0,0,0,0,0.1259,0.1258,0.1251,0.1249,0.1248,0.1236,0.1234,0.1236,0.1229,0.1227,0.1224,0.1223,0.1218,0.1218,0.1218,0.1237,0.1215,0.1216,0.1216,0.1248,0.1249,0.125,0,0,0,0,0,0,0.126,0.1259,0.1251,0.1252,0.125,0.1236,0.1238,0.1235,0.123,0.1225,0.1223,0.1221,0.1218,0.1218,0.1233,0.1236,0.1216,0.1216,0.1247,0.1249,0.125,0.127,0,0,0,0,0,0,0.126,0.126,0.1261,0.1252,0.125,0.1252,0.1238,0.1235,0.1228,0.1227,0.1222,0.1221,0.1218,0.1233,0.1233,0.1236,0.1216,0.1246,0.1248,0.1249,0.1268,0.1272,0.1274,0,0,0,0,0,0.1261,0.1257,0.1262,0.1261,0.1253,0.1253,0.1251,0.124,0.1229,0.1232,0.1235,0.1221,0.1242,0.1234,0.1235,0.1237,0.1246,0.1247,0.1249,0.1267,0.1271,0.1274,0,0,0,0,0,0,0.125,0.1255,0.126,0.1255,0.1259,0.1249,0.1244,0.124,0.1243,0.124,0.1235,0.1235,0.1248,0.1244,0.1236,0.1252,0.1239,0.1241,0.1253,0.1257,0.1259,0.1275,0.1216,0,0,0,0,0,0.1253,0.1259,0.1261,0.1259,0.126,0.1255,0.1252,0.1248,0.1248,0.1247,0.1247,0.1248,0.1256,0.1258,0.1263,0.1275,0.1286,0.1276,0.1279,0.1281,0.1295,0.1312,0.1318,0.1255,0.1255,0.1255,0,0,0.1244,0.1251,0.1251,0.1259,0.1257,0.1259,0.1252,0.1248,0.1252,0.1248,0.1253,0.1259,0.1263,0.1276,0.1281,0.1273,0.1307,0.1284,0.1286,0.1298,0.1315,0.1321,0.1326,0.1257,0.1256,0.1256,0,0,0.123,0.1241,0.124,0.1249,0.1255,0.1257,0.1257,0.1256,0.126,0.127,0.1271,0.1289,0.1286,0.1302,0.1306,0.1331,0.1324,0.1321,0.1347,0.1363,0.1369,0.1374,0.1404,0.1412,0.1321,0.1321,0.1321,0,0.1214,0.1225,0.1239,0.1243,0.125,0.1257,0.1258,0.1265,0.1271,0.1286,0.1272,0.13,0.1301,0.1333,0.1344,0.1338,0.1349,0.133,0.1367,0.1372,0.1377,0.1407,0.1415,0.1322,0.1322,0.1322,0.1322,0,0.1207,0.1215,0.1214,0.1231,0.1241,0.1244,0.1261,0.1274,0.1277,0.1289,0.132,0.1332,0.1352,0.1351,0.1354,0.1391,0.139,0.1369,0.1357,0.1384,0.1415,0.1423,0.1324,0.1324,0.1323,0.1323,0,0,0.116,0.1201,0.12,0.1213,0.1239,0.1243,0.1265,0.1294,0.1308,0.1325,0.135,0.1378,0.1393,0.1401,0.1409,0.1427,0.1472,0.1414,0.1414,0.1444,0.1519,0.1562,0.1575,0.145,0.1452,0.1453,0.1531,0,0.1146,0.116,0.1189,0.12,0.1207,0.1241,0.1261,0.1292,0.1315,0.1343,0.1378,0.14,0.1408,0.1417,0.1443,0.1465,0.1492,0.1453,0.149,0.1492,0.1525,0.1585,0.1646,0.1724,0.1538,0.154,0.154,0,0.1121,0.1143,0.1155,0.1197,0.1203,0.1213,0.1258,0.128,0.1335,0.1355,0.1401,0.1423,0.1483,0.1461,0.1535,0.1508,0.1524,0.1535,0.1537,0.1578,0.155,0.1665,0.1745,0.1779,0.1552,0.1551,0.1551,0,0.1078,0.1112,0.1127,0.114,0.1187,0.1204,0.1229,0.1281,0.1308,0.1368,0.1389,0.1458,0.149,0.1526,0.1578,0.1551,0.1646,0.1605,0.1664,0.1667,0.1729,0.1736,0.1848,0.1651,0.165,0.165,0.165,0,0.1049,0.1053,0.1108,0.1113,0.1129,0.1176,0.1199,0.1236,0.1295,0.133,0.1393,0.1435,0.1504,0.1568,0.1597,0.1682,0.1668,0.1697,0.1698,0.1739,0.1746,0.1784,0.1741,0.1653,0.1652,0.1652,0.1651,0,0.0985,0.1023,0.1036,0.1091,0.1104,0.1112,0.1169,0.1194,0.1254,0.1302,0.1323,0.1431,0.1535,0.1612,0.1686,0.1716,0.1771,0.1797,0.1856,0.1864,0.1941,0.1894,0.1855,0.1837,0.188,0.1882,0.1883,0,0.0953,0.0957,0.1004,0.1015,0.1036,0.1063,0.1086,0.1156,0.1191,0.1298,0.1323,0.1448,0.1543,0.1706,0.181,0.1912,0.1841,0.1989,0.1951,0.1988,0.1936,0.1789,0.1765,0.2044,0.2047,0.2049,0.2051,0,0.0896,0.0913,0.0933,0.0956,0.0977,0.1004,0.1048,0.107,0.1161,0.1221,0.1324,0.1413,0.1623,0.1796,0.1952,0.2009,0.1964,0.2035,0.206,0.2079,0.1939,0.1908,0.195,0.207,0.2068,0.2066,0.2065,0.2065,0.0846,0.0844,0.0877,0.0892,0.0922,0.0948,0.0958,0.1029,0.1088,0.119,0.1291,0.144,0.1736,0.1995,0.2055,0.2249,0.2088,0.2259,0.2204,0.2054,0.2028,0.2123,0.2243,0.2243,0.2242,0.2241,0.2241,0,0.077,0.0788,0.0814,0.0835,0.0853,0.0887,0.0935,0.0958,0.102,0.1167,0.1272,0.1593,0.1857,0.2095,0.2401,0.2436,0.2324,0.2416,0.2251,0.2221,0.2341,0.2348,0.2513,0.2513,0.2513,0.2513,0.2513,0.2513,0.0728,0.0724,0.0747,0.0759,0.0783,0.0794,0.0812,0.0871,0.0975,0.1168,0.1354,0.1512,0.192,0.2363,0.2587,0.2562,0.2429,0.2358,0.2279,0.2427,0.2409,0.2391,0.2393,0.2565,0.2564,0.216,0.2157,0.2155]},{"header":{"parameterUnit":"m.s-1","parameterCategory":2,"la1":30.2991,"la2":30.254,"lo1":-89.0895,"lo2":-89.0444,"dy":0.0017,"dx":0.0017,"nx":28,"ny":28,"refTime":"2025-03-12T03:00:00:Z","depth":"0","parameterNumber":3,"parameterNumberName":"V-component_of_CURRENTS"},"data":[0,0,0,0,0,0,0,0,0,0,0,0,0,0,0,0,0,0,0,0,0,0,0,0,0,0,0,0,0,0,0,0,0,0,0,0,0,0,0,0,0,0,0,0,0,0,0,0,0,0,0,0,0,0,0,0,0,0,0.031,0.031,0,0.0307,0.0307,0.0307,0.03,0.03,0.03,0.03,0.0301,0.0301,0.0301,0,0,0,0,0,0,0,0,0,0,0,0,0,0.0302,0.0302,0.031,0.031,0.031,0.0308,0.0307,0.0307,0.03,0.03,0.03,0.03,0.0301,0.0301,0.0301,0,0,0,0,0,0,0,0,0,0,0,0,0,0.03,0.0302,0.031,0.0309,0.0309,0.0308,0.0307,0.0307,0.03,0.03,0.03,0.03,0.0301,0.0301,0.0301,0.0296,0,0,0.03,0.03,0,0,0,0,0,0,0,0,0.0301,0.03,0.0309,0.0309,0.0309,0.0307,0.0305,0.0304,0.03,0.03,0.03,0.03,0.0305,0.0305,0.0299,0.0296,0.0296,0.03,0.03,0.03,0.03,0,0,0,0,0,0,0,0.0301,0.03,0.0305,0.0309,0.0309,0.0307,0.0307,0.0305,0.0299,0.03,0.03,0.0305,0.0305,0.0299,0.0299,0.0296,0.03,0.03,0.03,0.03,0.0289,0.0289,0,0,0,0,0,0,0.0308,0.03,0.0306,0.0306,0.0309,0.0307,0.0307,0.0305,0.0299,0.0299,0.0305,0.0305,0.0299,0.0299,0.0299,0.0295,0.03,0.03,0.03,0.029,0.0289,0.0289,0,0,0,0,0,0,0.0307,0.0308,0.0306,0.0306,0.0306,0.0307,0.0305,0.0305,0.03,0.0303,0.0303,0.0301,0.03,0.03,0.0299,0.0295,0.03,0.03,0.029,0.029,0.0289,0.0285,0,0,0,0,0,0,0.0307,0.0307,0.0306,0.0306,0.0306,0.0307,0.0305,0.0305,0.0304,0.0304,0.03,0.03,0.03,0.0299,0.0299,0.0295,0.03,0.029,0.029,0.0289,0.0285,0.0284,0.0284,0,0,0,0,0,0.0306,0.0306,0.0306,0.0307,0.0305,0.0307,0.0307,0.0306,0.0304,0.0302,0.03,0.03,0.0297,0.0299,0.0299,0.0294,0.029,0.029,0.0289,0.0285,0.0284,0.0284,0,0,0,0,0,0,0.0303,0.0306,0.0306,0.0306,0.0308,0.0307,0.0307,0.0306,0.0301,0.0299,0.0299,0.0299,0.0297,0.0296,0.0299,0.029,0.0293,0.0292,0.029,0.0289,0.0288,0.0294,0.03,0,0,0,0,0,0.0302,0.0303,0.0306,0.0307,0.0306,0.0305,0.0305,0.0304,0.0303,0.03,0.0301,0.0298,0.0294,0.0293,0.0292,0.0287,0.0275,0.0283,0.0282,0.0282,0.0285,0.0256,0.0252,0.0288,0.0288,0.0288,0,0,0.0304,0.0305,0.0307,0.0306,0.0305,0.0305,0.0304,0.0304,0.0303,0.0302,0.03,0.0297,0.0293,0.0289,0.0287,0.0287,0.0265,0.0281,0.0281,0.0285,0.0255,0.0251,0.0248,0.0287,0.0288,0.0288,0,0,0.0308,0.0305,0.0306,0.0306,0.0306,0.0304,0.0304,0.0303,0.0301,0.0299,0.0297,0.0292,0.029,0.0284,0.0281,0.0275,0.0264,0.0275,0.0273,0.0244,0.0241,0.0238,0.0217,0.0213,0.0272,0.0272,0.0272,0,0.031,0.031,0.0307,0.0307,0.031,0.0304,0.0306,0.03,0.03,0.0302,0.0299,0.0291,0.0287,0.0279,0.0276,0.0273,0.0258,0.0277,0.0242,0.0239,0.0236,0.0216,0.0211,0.0272,0.0272,0.0272,0.0272,0,0.0316,0.0314,0.0314,0.0311,0.0312,0.0312,0.0309,0.0307,0.0303,0.0302,0.0297,0.0286,0.0283,0.0276,0.0274,0.0254,0.025,0.0246,0.0244,0.0232,0.0212,0.0207,0.0271,0.0271,0.0272,0.0272,0,0,0.033,0.032,0.032,0.0321,0.0315,0.0318,0.0314,0.0314,0.0316,0.0305,0.0306,0.029,0.0286,0.0282,0.0274,0.0247,0.021,0.0238,0.0236,0.0217,0.0148,0.0123,0.0114,0.0195,0.0194,0.0194,0.0142,0,0.0337,0.0336,0.0331,0.0333,0.0335,0.0329,0.0332,0.033,0.0323,0.032,0.0301,0.0297,0.0287,0.0284,0.0255,0.0228,0.0196,0.0225,0.0164,0.0162,0.014,0.0107,0.0105,0.0056,0.0137,0.0136,0.0135,0,0.0352,0.0347,0.035,0.0351,0.0352,0.0352,0.0358,0.0357,0.0347,0.0345,0.033,0.0317,0.0289,0.0273,0.0211,0.023,0.0189,0.0159,0.0157,0.0132,0.0126,0.0081,0.0044,-0.0057,0.0127,0.0128,0.0128,0,0.0376,0.0367,0.037,0.0369,0.0365,0.0368,0.0367,0.0365,0.0372,0.0355,0.0359,0.0322,0.031,0.025,0.0196,0.0199,0.0121,0.0116,0.0052,0.0051,0.0037,0.0035,-0.0106,0.0057,0.0057,0.0057,0.0057,0,0.0397,0.0402,0.0378,0.0382,0.0391,0.0384,0.0393,0.0393,0.0391,0.0401,0.0372,0.0373,0.0302,0.0254,0.0194,0.0109,0.0117,0.0045,0.0029,0.0035,0.0034,-0.0063,-0.0122,0.0055,0.0056,0.0056,0.0056,0,0.0434,0.0418,0.0418,0.0404,0.0402,0.0409,0.0412,0.042,0.0419,0.0427,0.0424,0.0406,0.0351,0.0273,0.0181,0.0113,-0.0039,-0.0004,0.0012,-0.0002,-0.016,-0.0219,-0.0374,-0.0432,-0.0089,-0.009,-0.0091,0,0.0453,0.0456,0.0435,0.043,0.0423,0.0426,0.0433,0.0436,0.0442,0.0451,0.0458,0.0419,0.0406,0.0265,0.0132,0.0006,-0.0078,-0.0088,-0.0091,-0.0183,-0.026,-0.0296,-0.0335,-0.0109,-0.011,-0.011,-0.0111,0,0.0482,0.0472,0.0464,0.0455,0.0452,0.046,0.0464,0.0479,0.0485,0.0502,0.0519,0.0513,0.0388,0.0278,0.0103,0.0002,-0.0179,-0.0109,-0.0213,-0.0303,-0.0342,-0.0399,-0.0054,-0.0118,-0.0117,-0.0117,-0.0116,-0.0116,0.0494,0.0493,0.0474,0.0473,0.0472,0.0488,0.0505,0.0519,0.0549,0.0588,0.0576,0.0604,0.0448,0.0217,0.0038,-0.025,-0.0249,-0.0321,-0.0387,-0.0415,-0.0475,-0.0146,-0.0223,-0.0223,-0.0223,-0.0223,-0.0223,0,0.049,0.049,0.0492,0.0484,0.0492,0.0494,0.0521,0.055,0.0593,0.0648,0.0677,0.0671,0.0425,0.0181,-0.0188,-0.0446,-0.0548,-0.0591,-0.0643,-0.0672,-0.0384,-0.0388,-0.0494,-0.0494,-0.0494,-0.0494,-0.0493,-0.0493,0.0483,0.048,0.0487,0.0497,0.0502,0.0526,0.0548,0.0605,0.0655,0.0763,0.0833,0.0885,0.0799,0.004,-0.0489,-0.0659,-0.0854,-0.0925,-0.1008,-0.0807,-0.0786,-0.0766,-0.0784,-0.0971,-0.0972,-0.1252,-0.1255,-0.1258]}],[{"header":{"parameterUnit":"m.s-1","parameterCategory":2,"la1":30.2991,"la2":30.254,"lo1":-89.0895,"lo2":-89.0444,"dy":0.0017,"dx":0.0017,"nx":28,"ny":28,"refTime":"2025-03-12T03:00:00:Z","depth":"2","parameterNumber":2,"parameterNumberName":"U-component_of_CURRENTS"},"data":[0,0,0,0,0,0,0,0,0,0,0,0,0,0,0,0,0,0,0,0,0,0,0,0,0,0,0,0,0,0,0,0,0,0,0,0,0,0,0,0,0,0,0,0,0,0,0,0,0,0,0,0,0,0,0,0,0,0,-0.0023,-0.0022,0,-0.0003,-0.0003,-0.0003,0.0019,0.0019,0.002,0.002,0.0031,0.0031,0.0031,0,0,0,0,0,0,0,0,0,0,0,0,0,-0.0016,-0.0017,-0.0023,-0.0022,-0.0022,-0.0003,-0.0003,-0.0003,0.0018,0.0019,0.002,0.002,0.0031,0.0031,0.0031,0,0,0,0,0,0,0,0,0,0,0,0,0,-0.0012,-0.0017,-0.0023,-0.0007,-0.0005,-0.0003,-0.0003,-0.0003,0.0018,0.0019,0.002,0.0021,0.0031,0.0031,0.0031,0.0012,0,0,0.003,0.003,0,0,0,0,0,0,0,0,-0.0013,-0.0013,-0.001,-0.0008,-0.0006,0.0008,0.0003,0.0002,0.0018,0.0007,0.002,0.0021,0.0024,0.0024,0.0022,0.0012,0.0013,0.003,0.0029,0.0029,0.0029,0,0,0,0,0,0,0,-0.0013,-0.0014,-0.0018,-0.0009,-0.0007,0.0008,0.0009,0.0003,0.0008,0.0008,0.001,0.0016,0.0025,0.0023,0.0023,0.0013,0.003,0.0029,0.0029,0.0029,0.0018,0.0018,0,0,0,0,0,0,-0.0013,-0.0014,-0.0018,-0.0017,-0.0004,0.0007,0.0008,0.0001,0.0009,0.0011,0.0015,0.0017,0.0023,0.0023,0.0023,0.0036,0.0029,0.0029,0.0029,0.0018,0.0018,0.0018,0,0,0,0,0,0,-0.0013,-0.0014,-0.0019,-0.0012,-0.0011,0.0006,-0.0002,0.0001,0.0016,0.0015,0.0017,0.003,0.0024,0.0024,0.0032,0.0035,0.0029,0.0029,0.0018,0.0018,0.0018,0.0038,0,0,0,0,0,0,-0.0013,-0.0015,-0.0014,-0.0013,-0.0012,-0.0011,-0.0003,0.0001,0.0019,0.0021,0.0028,0.0029,0.0024,0.0032,0.0031,0.0035,0.0028,0.0018,0.0018,0.0018,0.0038,0.0039,0.004,0,0,0,0,0,-0.0013,-0.0016,-0.0015,-0.0014,-0.0014,-0.001,-0.0009,0.0006,0.0019,0.0023,0.0031,0.0029,0.003,0.0032,0.0031,0.0034,0.0018,0.0018,0.0018,0.0037,0.0039,0.004,0,0,0,0,0,0,-0.0005,-0.0014,-0.0012,-0.0015,-0.001,-0.0005,0.0006,0.0013,0.0022,0.0033,0.003,0.0031,0.0037,0.0032,0.0034,0.0029,0.0023,0.0022,0.0038,0.0039,0.004,0.0048,0.0028,0,0,0,0,0,-0.0007,-0.0013,-0.0014,-0.0013,-0.0009,0.0,0.0008,0.0016,0.0024,0.003,0.0036,0.0037,0.0031,0.0034,0.0029,0.0029,0.0039,0.0029,0.003,0.0031,0.0035,0.0045,0.0048,0.0017,0.0017,0.0017,0,0,0.0,-0.0006,-0.0007,-0.0011,-0.0003,0.0001,0.0007,0.0022,0.0029,0.0028,0.0045,0.0043,0.0032,0.0032,0.0033,0.0031,0.0049,0.003,0.0032,0.0036,0.0046,0.0049,0.0052,0.0017,0.0017,0.0017,0,0,0.0013,0.0003,0.0006,0.0006,0.0017,0.0015,0.0023,0.0034,0.0043,0.0055,0.0052,0.0054,0.0055,0.0043,0.0037,0.0039,0.0053,0.0039,0.0053,0.0063,0.0066,0.0069,0.0105,0.0111,0.0041,0.0041,0.0041,0,0.0029,0.002,0.0011,0.0015,0.0018,0.0023,0.0032,0.0035,0.0049,0.0054,0.0066,0.0065,0.0057,0.0047,0.0049,0.0042,0.0063,0.0051,0.0066,0.0069,0.0071,0.0107,0.0113,0.0042,0.0042,0.0042,0.0042,0,0.0037,0.0038,0.0043,0.0039,0.0039,0.0049,0.0047,0.0056,0.007,0.0073,0.0082,0.0076,0.0078,0.007,0.0063,0.0068,0.0085,0.0067,0.0066,0.0076,0.0113,0.0119,0.0043,0.0043,0.0043,0.0042,0,0,0.0066,0.0051,0.0058,0.0056,0.0053,0.0053,0.0059,0.0061,0.0072,0.0086,0.0101,0.0088,0.0097,0.009,0.008,0.0086,0.0124,0.0091,0.0091,0.0134,0.0176,0.0314,0.0334,0.0115,0.0116,0.0116,0.0203,0,0.0086,0.0089,0.0075,0.0083,0.0084,0.0077,0.0078,0.0079,0.0087,0.0103,0.0099,0.0111,0.0099,0.0111,0.0114,0.012,0.0138,0.0104,0.0154,0.0156,0.0283,0.0344,0.024,0.032,0.0209,0.021,0.0211,0,0.0104,0.01,0.0112,0.0096,0.0097,0.0106,0.0107,0.0107,0.0114,0.0125,0.0137,0.0141,0.0154,0.0143,0.0174,0.016,0.0175,0.0179,0.0182,0.0308,0.0306,0.0288,0.0335,0.0221,0.022,0.0219,0.0219,0,0.0122,0.0123,0.0131,0.013,0.0118,0.0131,0.0127,0.0127,0.0128,0.0152,0.0171,0.0179,0.0208,0.0215,0.0248,0.0214,0.0298,0.0244,0.0381,0.0391,0.0311,0.0315,0.0268,0.0268,0.0268,0.0268,0.0267,0,0.0134,0.0146,0.015,0.0155,0.017,0.0154,0.017,0.0171,0.0176,0.019,0.0195,0.0232,0.023,0.0277,0.028,0.039,0.0331,0.0414,0.0432,0.0321,0.0324,0.0232,0.0227,0.0271,0.027,0.0269,0.0269,0,0.0154,0.0157,0.0169,0.0174,0.0182,0.0196,0.0195,0.0194,0.0212,0.0238,0.0253,0.0289,0.0384,0.0403,0.0442,0.0466,0.0522,0.0566,0.0467,0.0475,0.0592,0.0587,0.0722,0.0728,0.0733,0.0737,0.074,0,0.0165,0.0177,0.0192,0.0201,0.0214,0.0228,0.0228,0.0224,0.0223,0.0284,0.03,0.0408,0.0502,0.0649,0.0716,0.08,0.0694,0.0724,0.0642,0.0641,0.0643,0.0629,0.0618,0.0529,0.053,0.0531,0.0532,0,0.0188,0.0203,0.0202,0.0219,0.0234,0.0233,0.0241,0.0247,0.0253,0.0304,0.04,0.0495,0.0689,0.0769,0.0909,0.0913,0.0708,0.076,0.0761,0.0467,0.0476,0.0473,0.0463,0.0543,0.0542,0.0541,0.054,0.054,0.0209,0.0207,0.0207,0.0222,0.0237,0.0241,0.0247,0.0261,0.0297,0.0379,0.0466,0.0593,0.065,0.0875,0.092,0.0939,0.0969,0.0819,0.0806,0.0794,0.0794,0.0815,0.0945,0.0946,0.0947,0.0948,0.0949,0,0.021,0.0199,0.0203,0.0205,0.0216,0.024,0.0249,0.0256,0.032,0.0424,0.0544,0.0579,0.0697,0.0754,0.0848,0.093,0.0829,0.0839,0.0626,0.0618,0.0611,0.0591,0.0693,0.0693,0.0693,0.0693,0,0,0.0196,0.0177,0.0164,0.0179,0.0206,0.0226,0.0246,0.0281,0.0336,0.0441,0.0513,0.0642,0.0704,0.066,0.07,0.0704,0.0642,0.0685,0.088,0.0617,0.0608,0.0592,0.0557,0,0,0,0,0]},{"header":{"parameterUnit":"m.s-1","parameterCategory":2,"la1":30.2991,"la2":30.254,"lo1":-89.0895,"lo2":-89.0444,"dy":0.0017,"dx":0.0017,"nx":28,"ny":28,"refTime":"2025-03-12T03:00:00:Z","depth":"2","parameterNumber":3,"parameterNumberName":"V-component_of_CURRENTS"},"data":[0,0,0,0,0,0,0,0,0,0,0,0,0,0,0,0,0,0,0,0,0,0,0,0,0,0,0,0,0,0,0,0,0,0,0,0,0,0,0,0,0,0,0,0,0,0,0,0,0,0,0,0,0,0,0,0,0,0,-0.0486,-0.0486,0,-0.0514,-0.0514,-0.0514,-0.0544,-0.0545,-0.0545,-0.0546,-0.0532,-0.0531,-0.053,0,0,0,0,0,0,0,0,0,0,0,0,0,-0.0404,-0.0406,-0.0486,-0.0486,-0.0486,-0.0514,-0.0514,-0.0514,-0.0544,-0.0545,-0.0545,-0.0546,-0.0532,-0.0531,-0.053,0,0,0,0,0,0,0,0,0,0,0,0,0,-0.0436,-0.0406,-0.0485,-0.0505,-0.0508,-0.0514,-0.0514,-0.0514,-0.0544,-0.0545,-0.0545,-0.0546,-0.0533,-0.0531,-0.053,-0.0506,0,0,-0.0526,-0.0526,0,0,0,0,0,0,0,0,-0.0434,-0.0438,-0.0502,-0.0504,-0.0507,-0.0527,-0.048,-0.051,-0.0544,-0.0529,-0.0546,-0.0547,-0.0527,-0.0526,-0.0528,-0.0506,-0.0505,-0.0526,-0.0525,-0.0525,-0.0524,0,0,0,0,0,0,0,-0.0432,-0.0437,-0.0496,-0.0502,-0.0505,-0.0495,-0.05,-0.0486,-0.0521,-0.053,-0.0533,-0.0537,-0.0527,-0.053,-0.0528,-0.0505,-0.0526,-0.0525,-0.0524,-0.0524,-0.0452,-0.0451,0,0,0,0,0,0,-0.0433,-0.0435,-0.0495,-0.0496,-0.0473,-0.0496,-0.0502,-0.0519,-0.0522,-0.0524,-0.0537,-0.0539,-0.0531,-0.053,-0.0528,-0.0516,-0.0525,-0.0523,-0.0523,-0.0453,-0.0452,-0.045,0,0,0,0,0,0,-0.0431,-0.0438,-0.0494,-0.0466,-0.0473,-0.0497,-0.0515,-0.0519,-0.0537,-0.0528,-0.0529,-0.0552,-0.0532,-0.053,-0.0516,-0.0515,-0.0523,-0.0522,-0.0454,-0.0452,-0.0451,-0.0483,0,0,0,0,0,0,-0.0429,-0.0438,-0.0452,-0.0467,-0.0475,-0.0505,-0.0514,-0.0519,-0.0538,-0.0541,-0.0541,-0.054,-0.0532,-0.0517,-0.0514,-0.0514,-0.0521,-0.0456,-0.0453,-0.0451,-0.0483,-0.0482,-0.0482,0,0,0,0,0,-0.0426,-0.044,-0.0453,-0.046,-0.0494,-0.0505,-0.0508,-0.0526,-0.0538,-0.0545,-0.0538,-0.0541,-0.0501,-0.0516,-0.0512,-0.0511,-0.0457,-0.0454,-0.0452,-0.0483,-0.0482,-0.0482,0,0,0,0,0,0,-0.0407,-0.0445,-0.0459,-0.0484,-0.0498,-0.0511,-0.0521,-0.0532,-0.0534,-0.054,-0.0531,-0.0529,-0.0514,-0.0501,-0.0517,-0.0479,-0.0477,-0.0474,-0.0502,-0.0501,-0.0501,-0.051,-0.052,0,0,0,0,0,-0.0411,-0.0438,-0.0461,-0.0481,-0.0491,-0.0509,-0.0518,-0.0531,-0.0533,-0.0537,-0.0536,-0.0521,-0.0497,-0.0492,-0.0472,-0.0457,-0.0448,-0.0449,-0.0448,-0.0448,-0.045,-0.0419,-0.0416,-0.0442,-0.0442,-0.0442,0,0,-0.0408,-0.0434,-0.0447,-0.048,-0.0495,-0.0503,-0.0517,-0.0535,-0.0537,-0.0532,-0.0535,-0.0521,-0.049,-0.0472,-0.0464,-0.0466,-0.0439,-0.0445,-0.0445,-0.0447,-0.0416,-0.0414,-0.0412,-0.044,-0.044,-0.0441,0,0,-0.041,-0.044,-0.0461,-0.0474,-0.0502,-0.0508,-0.0516,-0.0536,-0.0544,-0.0543,-0.0529,-0.0514,-0.0496,-0.0469,-0.0451,-0.043,-0.0435,-0.0426,-0.0437,-0.0407,-0.0405,-0.0403,-0.0412,-0.0411,-0.0428,-0.0428,-0.0428,0,-0.0408,-0.0437,-0.0465,-0.0481,-0.0488,-0.0511,-0.0518,-0.0524,-0.0535,-0.0529,-0.0548,-0.0504,-0.049,-0.0444,-0.0445,-0.043,-0.043,-0.045,-0.0409,-0.0407,-0.0404,-0.0413,-0.0412,-0.043,-0.043,-0.0429,-0.0429,0,-0.042,-0.0441,-0.0452,-0.0482,-0.0489,-0.0501,-0.051,-0.0518,-0.0534,-0.0534,-0.0514,-0.0496,-0.0471,-0.0461,-0.0455,-0.0423,-0.0436,-0.0414,-0.042,-0.0404,-0.0414,-0.0412,-0.0431,-0.0431,-0.0431,-0.043,0,0,-0.0428,-0.0456,-0.0463,-0.0468,-0.0491,-0.0495,-0.0496,-0.0495,-0.0489,-0.0504,-0.0487,-0.0463,-0.047,-0.0449,-0.0434,-0.0416,-0.0416,-0.0422,-0.042,-0.0448,-0.0386,-0.0405,-0.0405,-0.0395,-0.0394,-0.0393,-0.0409,0,-0.0433,-0.0454,-0.0465,-0.0471,-0.0478,-0.0486,-0.0478,-0.0478,-0.0482,-0.0472,-0.0457,-0.044,-0.0459,-0.0454,-0.0441,-0.0412,-0.0408,-0.0416,-0.0382,-0.0382,-0.0413,-0.0401,-0.0369,-0.038,-0.0407,-0.0407,-0.0406,0,-0.0449,-0.0458,-0.0466,-0.0461,-0.0464,-0.0466,-0.0456,-0.0453,-0.0438,-0.0441,-0.0434,-0.0429,-0.0412,-0.0426,-0.04,-0.0411,-0.0411,-0.0395,-0.0395,-0.0398,-0.0395,-0.0392,-0.0375,-0.0402,-0.0403,-0.0403,-0.0403,0,-0.0444,-0.0459,-0.0461,-0.0463,-0.0461,-0.046,-0.0459,-0.0448,-0.0435,-0.0428,-0.0419,-0.0405,-0.0395,-0.0389,-0.0395,-0.0399,-0.0366,-0.0356,-0.0373,-0.0376,-0.0333,-0.0333,-0.0334,-0.0334,-0.0334,-0.0334,-0.0334,0,-0.0449,-0.0451,-0.0462,-0.0461,-0.0456,-0.0458,-0.0445,-0.0443,-0.0424,-0.0395,-0.0411,-0.0376,-0.0385,-0.0374,-0.0385,-0.0386,-0.0363,-0.0379,-0.0373,-0.0345,-0.0346,-0.0344,-0.0345,-0.0335,-0.0335,-0.0335,-0.0335,0,-0.0447,-0.0457,-0.0454,-0.0453,-0.0456,-0.0455,-0.0445,-0.0428,-0.0421,-0.0383,-0.0382,-0.0356,-0.0343,-0.0361,-0.034,-0.0366,-0.0362,-0.0366,-0.036,-0.0353,-0.0401,-0.0403,-0.0389,-0.039,-0.039,-0.0391,-0.0391,0,-0.0446,-0.0449,-0.0449,-0.0449,-0.0453,-0.0453,-0.0444,-0.0435,-0.0408,-0.0355,-0.0324,-0.0308,-0.0252,-0.0261,-0.0306,-0.034,-0.0356,-0.0363,-0.0352,-0.0407,-0.0403,-0.0404,-0.0405,-0.0318,-0.0318,-0.0317,-0.0317,0,-0.0437,-0.0442,-0.0436,-0.044,-0.044,-0.0423,-0.0408,-0.038,-0.0349,-0.0291,-0.0203,-0.015,-0.0164,-0.0166,-0.025,-0.0275,-0.036,-0.0361,-0.0388,-0.0314,-0.0342,-0.0337,-0.034,-0.0315,-0.0316,-0.0316,-0.0316,-0.0316,-0.0427,-0.0425,-0.0425,-0.0429,-0.0417,-0.0382,-0.0354,-0.0298,-0.0222,-0.0101,-0.008,0.0021,-0.0065,-0.0116,-0.0209,-0.0329,-0.0317,-0.0354,-0.0354,-0.0353,-0.0347,-0.0374,-0.0355,-0.0356,-0.0356,-0.0356,-0.0357,0,-0.0416,-0.0414,-0.0414,-0.0402,-0.0375,-0.0378,-0.0315,-0.0243,-0.0117,-0.0004,0.0111,0.007,0.0062,-0.0059,-0.0213,-0.031,-0.0309,-0.036,-0.0331,-0.0331,-0.0332,-0.0324,-0.0327,-0.0327,-0.0328,-0.0328,0,0,-0.0407,-0.0406,-0.041,-0.037,-0.0353,-0.0297,-0.025,-0.012,-0.0016,0.0139,0.0205,0.0287,0.0123,0.0001,-0.0136,-0.0227,-0.0259,-0.0249,-0.0256,-0.0203,-0.0203,-0.0306,-0.0292,0,0,0,0,0]}],[{"header":{"parameterUnit":"m.s-1","parameterCategory":2,"la1":30.2991,"la2":30.254,"lo1":-89.0895,"lo2":-89.0444,"dy":0.0017,"dx":0.0017,"nx":28,"ny":28,"refTime":"2025-03-12T03:00:00:Z","depth":"4","parameterNumber":2,"parameterNumberName":"U-component_of_CURRENTS"},"data":[0,0,0,0,0,0,0,0,0,0,0,0,0,0,0,0,0,0,0,0,0,0,0,0,0,0,0,0,0,0,0,0,0,0,0,0,0,0,0,0,0,0,0,0,0,0,0,0,0,0,0,0,0,0,0,0,0,0,0.0229,0.0229,0,0.0218,0.0218,0.0218,0.0217,0.0217,0.0217,0.0217,0.0183,0.0182,0.0181,0,0,0,0,0,0,0,0,0,0,0,0,0,0.0239,0.0239,0.0229,0.0229,0.0229,0.0218,0.0218,0.0218,0.0217,0.0217,0.0217,0.0217,0.0184,0.0182,0.0181,0,0,0,0,0,0,0,0,0,0,0,0,0,0.0232,0.0239,0.0229,0.0227,0.0227,0.0218,0.0218,0.0218,0.0217,0.0217,0.0217,0.0217,0.0184,0.0183,0.0181,0.0167,0,0,0.0176,0.0176,0,0,0,0,0,0,0,0,0.0232,0.0232,0.0228,0.0227,0.0227,0.0219,0.0209,0.02,0.0217,0.022,0.0217,0.0217,0.0193,0.0191,0.0188,0.0166,0.0164,0.0176,0.0175,0.0175,0.0174,0,0,0,0,0,0,0,0.0233,0.0232,0.0224,0.0228,0.0227,0.0224,0.0223,0.0208,0.0205,0.022,0.022,0.0219,0.0193,0.019,0.0187,0.0164,0.0176,0.0175,0.0174,0.0173,0.0094,0.0093,0,0,0,0,0,0,0.0235,0.0232,0.0225,0.0224,0.0231,0.0223,0.0223,0.0221,0.0206,0.0204,0.0219,0.0219,0.0192,0.0189,0.0186,0.0136,0.0175,0.0173,0.0172,0.0095,0.0094,0.0093,0,0,0,0,0,0,0.0235,0.0235,0.0225,0.0228,0.0227,0.0223,0.0222,0.0221,0.022,0.0205,0.0203,0.0219,0.0192,0.0188,0.0166,0.0136,0.0172,0.0171,0.0097,0.0095,0.0093,0.0056,0,0,0,0,0,0,0.0236,0.0235,0.0239,0.0229,0.0227,0.0224,0.0221,0.0221,0.0219,0.0219,0.0204,0.0201,0.0192,0.0169,0.0165,0.0134,0.017,0.0098,0.0096,0.0094,0.0059,0.0053,0.0048,0,0,0,0,0,0.0236,0.0237,0.0239,0.0239,0.0231,0.0224,0.0223,0.0221,0.0219,0.022,0.0202,0.0202,0.0151,0.0167,0.0162,0.0131,0.0099,0.0097,0.0094,0.0061,0.0054,0.0048,0,0,0,0,0,0,0.0239,0.0237,0.0239,0.0239,0.0235,0.0225,0.0227,0.0221,0.0209,0.0205,0.0192,0.0187,0.0154,0.015,0.0167,0.0101,0.0123,0.0119,0.0099,0.0093,0.0088,0.0095,0.0169,0,0,0,0,0,0.0243,0.0248,0.0241,0.0242,0.0242,0.0235,0.0233,0.0227,0.0213,0.0208,0.0189,0.0166,0.0139,0.0125,0.0105,0.0073,0.0094,0.0048,0.0043,0.0039,0.0041,0.0033,0.0027,0.0084,0.0084,0.0084,0,0,0.0245,0.0245,0.0247,0.0244,0.0243,0.0239,0.0234,0.0228,0.0213,0.0205,0.0174,0.015,0.0128,0.0088,0.0072,0.0081,0.0039,0.0035,0.0032,0.0037,0.0029,0.0024,0.0019,0.0082,0.0083,0.0083,0,0,0.0247,0.0251,0.0255,0.0253,0.0249,0.0243,0.0241,0.0223,0.0205,0.0169,0.0155,0.012,0.0076,0.0054,0.0037,-0.0005,0.0015,-0.0022,-0.0046,-0.0055,-0.006,-0.0063,-0.0014,-0.0013,-0.0028,-0.0028,-0.0028,0,0.025,0.0252,0.0254,0.0255,0.0254,0.0245,0.0242,0.0221,0.0191,0.0171,0.0153,0.0079,0.0059,0.0015,-0.0011,-0.0017,-0.0001,-0.0021,-0.0061,-0.0064,-0.0067,-0.0016,-0.0015,-0.003,-0.003,-0.0029,-0.0029,0,0.025,0.0256,0.0257,0.0258,0.0256,0.0252,0.0229,0.0208,0.0175,0.0149,0.0088,0.0045,0.0002,-0.0021,-0.0036,-0.0078,-0.0049,-0.0063,-0.0042,-0.0075,-0.0019,-0.0017,-0.0033,-0.0032,-0.0031,-0.0031,0,0,0.0245,0.0256,0.0258,0.0264,0.0257,0.0254,0.0226,0.02,0.018,0.0116,0.008,0.0002,-0.0028,-0.0049,-0.0078,-0.0099,-0.0107,-0.0101,-0.01,-0.0044,-0.0088,-0.0006,0.0005,-0.0136,-0.0137,-0.0137,-0.0028,0,0.0245,0.0253,0.0255,0.026,0.0262,0.025,0.0227,0.0198,0.0158,0.0119,0.0055,0.0004,-0.0037,-0.0073,-0.0103,-0.0109,-0.0108,-0.0132,-0.007,-0.0067,0.0014,0.0006,-0.014,-0.0026,-0.0025,-0.0025,-0.0025,0,0.024,0.025,0.0255,0.0262,0.0262,0.025,0.0225,0.0198,0.0146,0.0109,0.0046,0.0009,-0.0045,-0.0078,-0.0099,-0.0117,-0.0106,-0.0104,-0.01,-0.001,0.0017,0.0006,-0.002,-0.002,-0.0021,-0.0021,-0.0021,0,0.0233,0.0248,0.0254,0.0257,0.0258,0.0241,0.0221,0.0183,0.0164,0.0093,0.008,0.001,-0.0017,-0.0048,-0.0043,-0.0084,-0.0025,-0.0075,0.0024,0.0033,-0.0055,-0.0053,-0.0072,-0.0072,-0.0072,-0.0072,-0.0073,0,0.0226,0.0234,0.0247,0.0248,0.0245,0.023,0.0209,0.0175,0.0139,0.0133,0.0061,0.0058,-0.0018,0.0009,-0.0012,0.0042,0.0006,0.0035,0.0057,-0.0069,-0.007,-0.0051,-0.005,-0.0068,-0.0069,-0.007,-0.0071,0,0.0211,0.0226,0.0235,0.0238,0.0239,0.0221,0.0207,0.019,0.0153,0.0145,0.0122,0.0102,0.0124,0.012,0.0118,0.0114,0.0137,0.0176,0.0108,0.0124,0.0193,0.0191,0.0264,0.0267,0.027,0.0273,0.0275,0,0.0203,0.0206,0.0227,0.0231,0.0226,0.0211,0.0203,0.0178,0.0171,0.0186,0.0188,0.022,0.0213,0.0292,0.0268,0.0291,0.0279,0.0309,0.017,0.0209,0.0223,0.0216,0.0209,0.028,0.028,0.0281,0.0282,0,0.0185,0.0193,0.0203,0.0211,0.0208,0.022,0.0204,0.0212,0.0202,0.0206,0.0246,0.0269,0.0335,0.0331,0.0391,0.0385,0.0278,0.0338,0.0329,0.0199,0.0229,0.0239,0.0229,0.0293,0.0291,0.029,0.0289,0,0.0171,0.0172,0.0184,0.019,0.0199,0.0206,0.0207,0.0221,0.0228,0.0251,0.0288,0.0322,0.0348,0.039,0.0432,0.0454,0.0406,0.0363,0.0351,0.034,0.0312,0.0357,0.0492,0,0,0,0,0,0.0159,0.0162,0.0162,0.0175,0.0183,0.0192,0.0207,0.0212,0.0242,0.0273,0.0274,0.0331,0.0389,0.0412,0.0442,0.0457,0.0404,0.0494,0.0346,0.0351,0.0339,0.0297,0,0,0,0,0,0,0.0155,0.0158,0.0159,0.0161,0.0169,0.0181,0.0192,0.0211,0.0228,0.0264,0.0291,0.0335,0.0384,0.037,0.0441,0.0452,0.0361,0.0528,0.0529,0.0358,0.0347,0.0337,0.029,0,0,0,0,0]},{"header":{"parameterUnit":"m.s-1","parameterCategory":2,"la1":30.2991,"la2":30.254,"lo1":-89.0895,"lo2":-89.0444,"dy":0.0017,"dx":0.0017,"nx":28,"ny":28,"refTime":"2025-03-12T03:00:00:Z","depth":"4","parameterNumber":3,"parameterNumberName":"V-component_of_CURRENTS"},"data":[0,0,0,0,0,0,0,0,0,0,0,0,0,0,0,0,0,0,0,0,0,0,0,0,0,0,0,0,0,0,0,0,0,0,0,0,0,0,0,0,0,0,0,0,0,0,0,0,0,0,0,0,0,0,0,0,0,0,-0.0274,-0.0275,0,-0.0317,-0.0317,-0.0318,-0.035,-0.0351,-0.0351,-0.0351,-0.0412,-0.0413,-0.0415,0,0,0,0,0,0,0,0,0,0,0,0,0,-0.0203,-0.0204,-0.0274,-0.0275,-0.0275,-0.0317,-0.0317,-0.0318,-0.035,-0.0351,-0.0351,-0.0351,-0.0412,-0.0413,-0.0415,0,0,0,0,0,0,0,0,0,0,0,0,0,-0.0238,-0.0204,-0.0274,-0.0297,-0.0299,-0.0317,-0.0317,-0.0318,-0.035,-0.0351,-0.0351,-0.0352,-0.0411,-0.0413,-0.0415,-0.0416,0,0,-0.0421,-0.0422,0,0,0,0,0,0,0,0,-0.0236,-0.024,-0.0293,-0.0295,-0.0298,-0.0329,-0.0314,-0.0352,-0.035,-0.033,-0.0351,-0.0352,-0.0386,-0.039,-0.0396,-0.0419,-0.0422,-0.0421,-0.0422,-0.0423,-0.0424,0,0,0,0,0,0,0,-0.0233,-0.0239,-0.029,-0.0293,-0.0297,-0.0299,-0.0305,-0.0322,-0.0354,-0.0332,-0.0335,-0.034,-0.0388,-0.0394,-0.0398,-0.0423,-0.0421,-0.0423,-0.0424,-0.0425,-0.0525,-0.0527,0,0,0,0,0,0,-0.023,-0.0236,-0.0289,-0.0292,-0.0268,-0.03,-0.0306,-0.0318,-0.0354,-0.036,-0.034,-0.0341,-0.039,-0.0395,-0.04,-0.0457,-0.0423,-0.0425,-0.0426,-0.0524,-0.0526,-0.0527,0,0,0,0,0,0,-0.0228,-0.0234,-0.0287,-0.0265,-0.0272,-0.0301,-0.0314,-0.0319,-0.0354,-0.036,-0.0366,-0.0373,-0.0391,-0.0397,-0.0445,-0.0457,-0.0426,-0.0427,-0.0522,-0.0524,-0.0526,-0.0536,0,0,0,0,0,0,-0.0226,-0.0234,-0.0245,-0.0265,-0.0273,-0.0319,-0.0314,-0.0319,-0.0355,-0.0359,-0.039,-0.0394,-0.0392,-0.0442,-0.0447,-0.0459,-0.0429,-0.052,-0.0523,-0.0526,-0.0534,-0.0539,-0.0543,0,0,0,0,0,-0.0223,-0.0237,-0.0245,-0.0252,-0.0287,-0.032,-0.0325,-0.0346,-0.0356,-0.0378,-0.0403,-0.0395,-0.0463,-0.0445,-0.045,-0.0463,-0.0519,-0.0522,-0.0525,-0.0532,-0.0538,-0.0542,0,0,0,0,0,0,-0.0218,-0.0242,-0.0252,-0.0274,-0.0304,-0.0326,-0.0344,-0.0363,-0.04,-0.0414,-0.0417,-0.0423,-0.0469,-0.0473,-0.0453,-0.0504,-0.0489,-0.0493,-0.0492,-0.0498,-0.0502,-0.0486,-0.0431,0,0,0,0,0,-0.022,-0.0241,-0.0264,-0.0291,-0.03,-0.0328,-0.0346,-0.0373,-0.0403,-0.042,-0.0438,-0.0462,-0.0482,-0.0497,-0.0519,-0.0548,-0.053,-0.0561,-0.0565,-0.0569,-0.0562,-0.0544,-0.0545,-0.0538,-0.0538,-0.0538,0,0,-0.0231,-0.0245,-0.026,-0.0292,-0.0311,-0.0337,-0.0341,-0.0388,-0.0426,-0.0421,-0.0477,-0.0485,-0.0497,-0.0528,-0.0548,-0.0535,-0.0565,-0.0573,-0.0575,-0.0567,-0.0548,-0.0548,-0.0548,-0.0541,-0.054,-0.054,0,0,-0.0253,-0.0271,-0.0288,-0.0307,-0.0346,-0.0368,-0.0389,-0.0428,-0.0462,-0.0513,-0.0516,-0.0537,-0.0572,-0.0575,-0.058,-0.0626,-0.0593,-0.0634,-0.0634,-0.0618,-0.0617,-0.0616,-0.06,-0.0597,-0.0629,-0.0629,-0.0629,0,-0.0261,-0.0288,-0.0302,-0.0317,-0.0339,-0.0384,-0.0414,-0.0454,-0.0512,-0.0532,-0.054,-0.0578,-0.0591,-0.0611,-0.0618,-0.0633,-0.0611,-0.0608,-0.0619,-0.0618,-0.0617,-0.06,-0.0597,-0.063,-0.063,-0.063,-0.063,0,-0.0283,-0.0311,-0.0325,-0.0357,-0.0384,-0.0427,-0.0472,-0.0519,-0.056,-0.0581,-0.0626,-0.0637,-0.0644,-0.0657,-0.0646,-0.0648,-0.0631,-0.0628,-0.0596,-0.0617,-0.06,-0.0596,-0.0631,-0.0631,-0.0631,-0.063,0,0,-0.0288,-0.0332,-0.0338,-0.0358,-0.0414,-0.0439,-0.0506,-0.0562,-0.059,-0.0642,-0.0663,-0.0691,-0.0675,-0.068,-0.0673,-0.0657,-0.0632,-0.0629,-0.0628,-0.0595,-0.0583,-0.0557,-0.055,-0.0616,-0.0615,-0.0615,-0.0575,0,-0.0307,-0.0339,-0.0363,-0.0416,-0.0437,-0.0488,-0.0535,-0.0592,-0.0632,-0.0662,-0.0686,-0.0696,-0.0692,-0.0677,-0.0667,-0.0645,-0.0623,-0.0643,-0.0583,-0.0581,-0.054,-0.0546,-0.0613,-0.0572,-0.0572,-0.0571,-0.0571,0,-0.0318,-0.0339,-0.0387,-0.0437,-0.0449,-0.0497,-0.0563,-0.0608,-0.0659,-0.0676,-0.0688,-0.0687,-0.0685,-0.0672,-0.0641,-0.0647,-0.0608,-0.0591,-0.0589,-0.0554,-0.0548,-0.0548,-0.0564,-0.0565,-0.0565,-0.0566,-0.0566,0,-0.0305,-0.0357,-0.0401,-0.0417,-0.0479,-0.0525,-0.0567,-0.0621,-0.064,-0.0673,-0.0662,-0.0677,-0.0661,-0.064,-0.0606,-0.0608,-0.0565,-0.0567,-0.0512,-0.051,-0.0539,-0.0541,-0.0527,-0.0527,-0.0527,-0.0527,-0.0527,0,-0.0313,-0.0345,-0.0406,-0.0425,-0.0472,-0.0521,-0.0568,-0.0601,-0.0636,-0.0618,-0.0654,-0.0623,-0.0641,-0.062,-0.0601,-0.0549,-0.0559,-0.0506,-0.0495,-0.0548,-0.0551,-0.0537,-0.0539,-0.0526,-0.0526,-0.0526,-0.0526,0,-0.0303,-0.0344,-0.0379,-0.0445,-0.0469,-0.0502,-0.0556,-0.0566,-0.0603,-0.0579,-0.0575,-0.0576,-0.0537,-0.0563,-0.0524,-0.0522,-0.0492,-0.0464,-0.0522,-0.0516,-0.045,-0.0453,-0.0402,-0.0401,-0.0399,-0.0398,-0.0398,0,-0.0307,-0.0329,-0.0373,-0.0384,-0.0427,-0.0478,-0.0498,-0.0548,-0.0533,-0.0522,-0.0486,-0.0469,-0.0458,-0.0413,-0.0439,-0.0437,-0.0425,-0.0424,-0.0436,-0.0441,-0.0436,-0.0441,-0.0445,-0.0396,-0.0396,-0.0395,-0.0395,0,-0.0303,-0.0321,-0.0339,-0.0355,-0.0386,-0.04,-0.0429,-0.0416,-0.0432,-0.0446,-0.038,-0.0377,-0.0341,-0.0355,-0.0366,-0.0357,-0.0446,-0.0412,-0.0414,-0.0425,-0.0433,-0.043,-0.0436,-0.0391,-0.0392,-0.0392,-0.0392,0,-0.0292,-0.0295,-0.0312,-0.0328,-0.0341,-0.0339,-0.0357,-0.0341,-0.0343,-0.0326,-0.0285,-0.029,-0.0294,-0.0307,-0.0306,-0.0322,-0.0315,-0.0321,-0.0328,-0.0333,-0.0336,-0.0337,-0.0246,0,0,0,0,0,-0.0279,-0.0282,-0.0283,-0.0299,-0.03,-0.0317,-0.031,-0.0322,-0.0319,-0.0251,-0.0277,-0.0237,-0.0242,-0.0252,-0.0255,-0.0292,-0.0334,-0.0297,-0.0349,-0.0369,-0.0374,-0.0388,0,0,0,0,0,0,-0.0271,-0.0275,-0.0277,-0.0275,-0.0277,-0.0286,-0.0284,-0.0279,-0.0246,-0.0235,-0.0235,-0.0233,-0.0244,-0.0239,-0.0254,-0.026,-0.0291,-0.0305,-0.0304,-0.0366,-0.037,-0.0374,-0.039,0,0,0,0,0]}]]